Regional Weather Roundup
Issued by NWS

Home | Current Version | Previous Version | Text Only | Print | Product List | Glossary On
Versions: 1 2 3 4 5 6 7 8 9 10 11 12 13 14 15 16 17 18 19 20 21 22 23 24 25 26 27 28 29 30 31 32 33 34 35 36 37 38 39 40 41 42 43 44 45 46 47 48 49 50
000
ASUS43 KMKX 292321
RWRWI

WISCONSIN REGIONAL WEATHER ROUNDUP
NATIONAL WEATHER SERVICE MILWAUKEE/SULLIVAN WI
600 PM CDT FRI AUG 29 2014

NOTE: "FAIR" INDICATES FEW OR NO CLOUDS BELOW 12,000 FEET WITH NO
SIGNIFICANT WEATHER AND/OR OBSTRUCTIONS TO VISIBILITY.

WIZ001-002-006>008-014>016-023>028-300000-
NORTHWEST WISCONSIN

CITY           SKY/WX    TMP DP  RH WIND       PRES   REMARKS
SUPERIOR ARPT  CLOUDY    62  62  99 NE3       29.76S FOG
ASHLAND        CLOUDY    69  67  93 CALM      29.76S
HAYWARD        CLOUDY    69  67  93 SE3       29.78R
SIREN          PTSUNNY   69  67  93 CALM      29.76S
RICE LAKE      CLOUDY    69  66  92 CALM      29.78R
LADYSMITH      TSTM      66  64  96 SE6       29.78F
EAU CLAIRE     LGT RAIN  72  69  90 CALM      29.75S
MENOMONIE      CLOUDY    70  65  84 CALM      29.76R
NEW RICHMOND   CLOUDY    73  68  86 SE3       29.74S
OSCEOLA        LGT RAIN  70  70 100 CALM      29.77R
$$

WIZ003>005-009-010-017-018-300000-
NORTH CENTRAL WISCONSIN

CITY           SKY/WX    TMP DP  RH WIND       PRES   REMARKS
WOODRUFF       CLOUDY    72  68  87 SE7       29.83F FOG
RHINELANDER    MOSUNNY   69  66  90 SE6       29.85S
EAGLE RIVER      N/A     70  66  88 SW5       29.85R
LAND O LAKES   CLOUDY    70  65  84 S5        29.85R
PHILLIPS       TSTM      65  64  96 SW7       29.82S
TOMAHAWK       MOSUNNY   70  67  90 SE3       29.82F FOG
MEDFORD        CLOUDY    74  70  89 SE5       29.80S
MERRILL        MOSUNNY   76  71  83 E3        29.81F
$$

WIZ029-030-035-036-043>047-300000-
CENTRAL WISCONSIN

CITY           SKY/WX    TMP DP  RH WIND       PRES   REMARKS
WAUSAU         MOSUNNY   80  71  74 S7        29.79S HX  84
MOSINEE        MOSUNNY   81  73  78 S6        29.81F HX  85
MARSHFIELD     MOSUNNY   76  66  71 S8        29.79S
STEVENS POINT  PTSUNNY   80  70  72 S9        29.80F HX  82
WAUPACA        MOSUNNY   84  71  65 S7        29.80S HX  89
WAUTOMA        SUNNY     84  72  67 S6        29.80S HX  89
WISC RAPIDS    MOSUNNY   83  70  64 S7        29.81R HX  87
CAMP DOUGLAS   SUNNY     83  73  71 VRB5      29.79R HX  89
$$

WIZ011>013-019>022-031-037>040-048>050-300000-
NORTHEAST WISCONSIN

CITY           SKY/WX    TMP DP  RH WIND       PRES   REMARKS
ANTIGO         PTSUNNY   75  70  86 S3        29.84S
STURGEON BAY   SUNNY     70  64  83 S18G24    29.84F
GREEN BAY      MOSUNNY   79  73  82 SE10      29.82R HX  82
MANITOWOC      CLOUDY    72  68  88 S20G28    29.86R
APPLETON       PTSUNNY   81  70  69 S10       29.83R HX  84
CLINTONVILLE   MOSUNNY   82  72  69 S7        29.80S HX  87
OSHKOSH        SUNNY     81  72  74 S13       29.81S HX  85
$$

WIZ032>034-041-042-053>061-300000-
SOUTHWEST WISCONSIN

CITY           SKY/WX    TMP DP  RH WIND       PRES   REMARKS
LA CROSSE      MOSUNNY   85  71  63 S9        29.74R HX  90
SPARTA         MOSUNNY   83  67  58 S8        29.78R HX  85
VIROQUA        FAIR      81  69  67 S9        29.80R HX  84
BOSCOBEL       MOSUNNY   86  68  54 S7        29.77F HX  89
PRAIRIE DU CHI MOSUNNY  N/A N/A N/A SE9       29.76S
PLATTEVILLE    FAIR      82  70  66 S9        29.82F HX  86
$$

WIZ056-057-062-063-064-067-068-300000-
SOUTH CENTRAL WISCONSIN

CITY           SKY/WX    TMP DP  RH WIND       PRES   REMARKS
BARABOO/DELLS  MOSUNNY   84  67  58 S12       29.80S HX  86
LONE ROCK      SUNNY     88  71  57 S10       29.79S HX  94
WATERTOWN      SUNNY     82  72  72 S8        29.84S HX  86
MADISON        MOSUNNY   84  70  62 S15G23    29.82F HX  88
MIDDLETON      FAIR      84  70  61 S14G22    29.83S HX  88
MONROE         SUNNY     81  72  74 S13       29.84F HX  84
JANESVILLE     SUNNY     84  68  58 S12       29.85R HX  87
$$

WIZ051-052-058>065-066-070>072-300000-
SOUTHEAST WISCONSIN

CITY           SKY/WX    TMP DP  RH WIND       PRES   REMARKS
MILWAUKEE      PTSUNNY   78  71  79 S15       29.87S HX  80
WAUKESHA       PTSUNNY   81  70  69 S13       29.87S HX  84
MILWAUKEE/TIMM SUNNY     82  70  65 S10       29.87R HX  86
RACINE         PTSUNNY   77  70  79 S15G23    29.89S
BURLINGTON     PTSUNNY   81  71  71 S7        29.86F HX  84
KENOSHA        MOSUNNY   80  73  79 SE13      29.88S HX  84
FOND DU LAC    MOSUNNY   80  68  66 S13       29.83S HX  83
SHEBOYGAN      PTSUNNY   74  69  85 S13G20    29.86S
WEST BEND      MOSUNNY   79  68  69 S9        29.86R HX  81
JUNEAU         MOSUNNY   80  72  76 S9        29.85F HX  83
$$

LSZ147-162-300000-
LAKE SUPERIOR

STATION/POSITION TIME  TEMP    WIND        PRES    WAVE
                       AIR SEA DIR/SP/G            HT/PER
                 (UTC) (F)     (DEG/KT/KT) (MB)    (FT/S)
W MID LAKE BUOY  2250   59 57   60/  4/  4 1007.4F   1
DEVILS ISLAND    2300   62        CALM     1007.9R
PORT WING        2200   64      30/  9/ 10 1007.5S
SAXON HARBOR     2240   67     290/  4/  6 1007.8S
$$

LMZ867-665-643>646-300000-
LAKE MICHIGAN

STATION/POSITION TIME  TEMP    WIND        PRES    WAVE
                       AIR SEA DIR/SP/G            HT/PER
                 (UTC) (F)     (DEG/KT/KT) (MB)    (FT/S)
N MID LAKE BUOY  2250   68 65  190/ 14/ 16 1010.4F   3/ 6
NORTHPORT PIER   2200   69     170/ 11/ 20 1010.5F
SISTER BAY       2211   71     180/ 20/ 29   N/A
KEWAUNEE LAKESHO 2200   67     170/ 16/ 21 1010.0F
SHEBOYGAN LAKESH 2300   69 68  180/ 18/ 18 1011.3R
ATWATER BUOY     2300   72     160/ 17/ 19 1012.2F
MILWAUKEE LAKESH 2300   72     150/ 15/ 17   N/A
S MID LAKE BUOY  2250   71 69  150/ 14/ 16 1012.2F   2/ 4
KENOSHA   LAKESH 2300   73     180/ 13/ 17 1011.2F
$$

TC  - TEMPERATURE IN CELSIUS
VSB - VISIBILITY IN STATUTE MILES
WCI - WIND CHILL INDEX
HX  - HEAT INDEX



USA.gov is the U.S. government's official web portal to all federal, state and local government web resources and services.